• en France
  • Liste des pays
  • À 7 jours
  • Température de l'eau
  • Carte satellitaire
  • Carte météo
  • Widgets météo
  • user-avatar
    Se connecter

    Météo par heure à Ballycastle

    Ce jour, 21 Janvier, Dimanche

    Heure Température Précipitation Vent Pression Humidité
    00:00 +2°C° 0 mm 2 m/s 754 mmHg 88%
    01:00 +1°C° 0,1 mm 3 m/s 754 mmHg 89%
    02:00 0°C° 0,1 mm 4 m/s 753 mmHg 90%
    03:00 0°C° 0,1 mm 4 m/s 753 mmHg 91%
    04:00 -1°C° 0,9 mm 6 m/s 753 mmHg 92%
    05:00 -1°C° 0,9 mm 7 m/s 752 mmHg 94%
    06:00 -1°C° 0,9 mm 9 m/s 751 mmHg 95%
    07:00 0°C° 1,4 mm 9 m/s 751 mmHg 96%
    08:00 0°C° 1,4 mm 10 m/s 750 mmHg 97%
    09:00 -1°C° 1,4 mm 11 m/s 749 mmHg 97%
    10:00 -1°C° 0,6 mm 11 m/s 748 mmHg 98%
    11:00 +1°C° 0,6 mm 11 m/s 748 mmHg 98%
    12:00 +1°C° 0,6 mm 11 m/s 747 mmHg 98%
    13:00 +1°C° 0,5 mm 10 m/s 746 mmHg 98%
    14:00 +2°C° 0,5 mm 9 m/s 746 mmHg 98%
    15:00 +2°C° 0,5 mm 8 m/s 745 mmHg 98%
    16:00 +4°C° 0,2 mm 7 m/s 745 mmHg 98%
    17:00 +5°C° 0,2 mm 7 m/s 745 mmHg 98%
    18:00 +5°C° 0,2 mm 7 m/s 745 mmHg 98%
    19:00 +5°C° 0,1 mm 7 m/s 746 mmHg 96%
    20:00 +4°C° 0,1 mm 8 m/s 746 mmHg 95%
    21:00 +2°C° 0,1 mm 8 m/s 747 mmHg 93%
    22:00 +2°C° 0 mm 8 m/s 748 mmHg 92%
    23:00 +2°C° 0 mm 8 m/s 748 mmHg 91%

    Demain, 22 Janvier, Lundi

    Heure Température Précipitation Vent Pression Humidité
    00:00 +1°C° 0 mm 8 m/s 749 mmHg 90%
    01:00 +1°C° 0,1 mm 8 m/s 749 mmHg 90%
    02:00 +2°C° 0,1 mm 8 m/s 749 mmHg 90%
    03:00 +2°C° 0,1 mm 8 m/s 750 mmHg 91%
    04:00 +2°C° 0,1 mm 8 m/s 750 mmHg 91%
    05:00 +2°C° 0,1 mm 8 m/s 750 mmHg 91%
    06:00 +2°C° 0,1 mm 8 m/s 751 mmHg 91%
    07:00 +3°C° 0 mm 7 m/s 751 mmHg 91%
    08:00 +3°C° 0 mm 7 m/s 751 mmHg 91%
    09:00 +2°C° 0 mm 7 m/s 752 mmHg 91%
    10:00 +3°C° 0 mm 7 m/s 752 mmHg 91%
    11:00 +3°C° 0 mm 7 m/s 753 mmHg 90%
    12:00 +4°C° 0 mm 6 m/s 753 mmHg 90%
    13:00 +4°C° 0 mm 6 m/s 753 mmHg 90%
    14:00 +4°C° 0 mm 6 m/s 753 mmHg 90%
    15:00 +4°C° 0 mm 6 m/s 753 mmHg 90%
    16:00 +4°C° 0 mm 6 m/s 754 mmHg 91%
    17:00 +3°C° 0 mm 7 m/s 754 mmHg 91%
    18:00 +3°C° 0 mm 7 m/s 754 mmHg 92%
    19:00 +3°C° 0 mm 7 m/s 754 mmHg 91%
    20:00 +3°C° 0 mm 7 m/s 753 mmHg 91%
    21:00 +4°C° 0 mm 8 m/s 753 mmHg 90%
    22:00 +4°C° 0,1 mm 8 m/s 753 mmHg 91%
    23:00 +4°C° 0,1 mm 8 m/s 752 mmHg 91%

    Après-demain, 23 Janvier, Mardi

    Heure Température Précipitation Vent Pression Humidité
    00:00 +4°C° 0,1 mm 8 m/s 751 mmHg 92%
    01:00 +5°C° 0,1 mm 8 m/s 751 mmHg 92%
    02:00 +5°C° 0,1 mm 8 m/s 750 mmHg 92%
    03:00 +5°C° 0,1 mm 8 m/s 749 mmHg 93%
    04:00 +6°C° 0,2 mm 8 m/s 749 mmHg 93%
    05:00 +7°C° 0,2 mm 9 m/s 748 mmHg 93%
    06:00 +7°C° 0,2 mm 9 m/s 747 mmHg 93%
    07:00 +7°C° 0,2 mm 9 m/s 747 mmHg 92%
    08:00 +8°C° 0,2 mm 9 m/s 746 mmHg 92%
    09:00 +9°C° 0,2 mm 8 m/s 746 mmHg 92%
    10:00 +8°C° 0,3 mm 9 m/s 746 mmHg 90%
    11:00 +8°C° 0,3 mm 9 m/s 746 mmHg 88%
    12:00 +10°C° 0,3 mm 9 m/s 745 mmHg 87%
    13:00 +8°C° 0,2 mm 9 m/s 746 mmHg 86%
    14:00 +9°C° 0,2 mm 8 m/s 746 mmHg 85%
    15:00 +7°C° 0,2 mm 8 m/s 746 mmHg 84%
    16:00 +6°C° 0,1 mm 7 m/s 746 mmHg 86%
    17:00 +6°C° 0,1 mm 7 m/s 746 mmHg 87%
    18:00 +5°C° 0,1 mm 6 m/s 746 mmHg 89%
    19:00 +4°C° 0 mm 7 m/s 745 mmHg 89%
    20:00 +4°C° 0 mm 7 m/s 745 mmHg 89%
    21:00 +4°C° 0 mm 7 m/s 745 mmHg 89%
    22:00 +4°C° 0,4 mm 7 m/s 744 mmHg 91%
    23:00 +4°C° 0,4 mm 7 m/s 742 mmHg 93%

    24 Janvier, Mercredi

    Heure Température Précipitation Vent Pression Humidité
    00:00 +5°C° 0,4 mm 7 m/s 741 mmHg 95%
    01:00 +5°C° 1,2 mm 8 m/s 739 mmHg 93%
    02:00 +5°C° 1,2 mm 9 m/s 738 mmHg 92%
    03:00 +6°C° 1,2 mm 10 m/s 736 mmHg 90%
    04:00 +5°C° 0,4 mm 10 m/s 737 mmHg 88%
    05:00 +3°C° 0,4 mm 11 m/s 737 mmHg 86%
    06:00 +2°C° 0,4 mm 12 m/s 738 mmHg 84%
    07:00 +2°C° 0 mm 11 m/s 739 mmHg 84%
    08:00 +2°C° 0 mm 11 m/s 739 mmHg 83%
    09:00 +1°C° 0 mm 10 m/s 740 mmHg 82%
    10:00 +2°C° 0 mm 10 m/s 740 mmHg 80%
    11:00 +3°C° 0 mm 10 m/s 740 mmHg 78%
    12:00 +5°C° 0 mm 10 m/s 741 mmHg 75%
    13:00 +5°C° 0,1 mm 10 m/s 741 mmHg 74%
    14:00 +3°C° 0,1 mm 10 m/s 741 mmHg 73%
    15:00 +3°C° 0,1 mm 10 m/s 741 mmHg 72%
    16:00 +3°C° 0 mm 10 m/s 741 mmHg 73%
    17:00 +2°C° 0 mm 10 m/s 741 mmHg 74%
    18:00 +2°C° 0 mm 10 m/s 741 mmHg 75%
    19:00 +2°C° 0 mm 10 m/s 741 mmHg 75%
    20:00 +2°C° 0 mm 11 m/s 740 mmHg 76%
    21:00 +1°C° 0 mm 11 m/s 740 mmHg 76%
    22:00 +2°C° 0 mm 11 m/s 740 mmHg 76%
    23:00 +2°C° 0 mm 11 m/s 739 mmHg 77%

    25 Janvier, Jeudi

    Heure Température Précipitation Vent Pression Humidité
    00:00 +2°C° 0 mm 11 m/s 739 mmHg 77%
    01:00 +2°C° 0,1 mm 11 m/s 739 mmHg 77%
    02:00 +2°C° 0,1 mm 10 m/s 739 mmHg 77%
    03:00 +2°C° 0,1 mm 10 m/s 739 mmHg 77%
    04:00 +2°C° 0 mm 10 m/s 739 mmHg 78%
    05:00 +2°C° 0 mm 10 m/s 739 mmHg 78%
    06:00 +1°C° 0 mm 9 m/s 739 mmHg 79%
    07:00 +2°C° 0 mm 9 m/s 739 mmHg 79%
    08:00 +2°C° 0 mm 8 m/s 739 mmHg 79%
    09:00 +2°C° 0 mm 8 m/s 740 mmHg 80%
    10:00 +4°C° 0,2 mm 7 m/s 740 mmHg 79%
    11:00 +4°C° 0,2 mm 7 m/s 741 mmHg 79%
    12:00 +5°C° 0,2 mm 6 m/s 742 mmHg 78%
    13:00 +5°C° 0,1 mm 6 m/s 743 mmHg 80%
    14:00 +5°C° 0,1 mm 6 m/s 744 mmHg 81%
    15:00 +5°C° 0,1 mm 6 m/s 744 mmHg 82%
    16:00 +5°C° 0 mm 7 m/s 746 mmHg 83%
    17:00 +4°C° 0 mm 7 m/s 747 mmHg 85%
    18:00 +2°C° 0 mm 8 m/s 748 mmHg 86%
    19:00 +2°C° 0 mm 8 m/s 749 mmHg 85%
    20:00 +2°C° 0 mm 9 m/s 751 mmHg 84%
    21:00 +3°C° 0 mm 9 m/s 752 mmHg 83%
    22:00 +3°C° 0 mm 9 m/s 753 mmHg 83%
    23:00 +3°C° 0 mm 9 m/s 755 mmHg 83%

    26 Janvier, Vendredi

    Heure Température Précipitation Vent Pression Humidité
    00:00 +3°C° 0 mm 10 m/s 756 mmHg 83%
    01:00 +3°C° 0 mm 10 m/s 757 mmHg 82%
    02:00 +2°C° 0 mm 10 m/s 758 mmHg 82%
    03:00 +2°C° 0 mm 9 m/s 760 mmHg 81%
    04:00 +2°C° 0 mm 9 m/s 761 mmHg 81%
    05:00 +1°C° 0 mm 8 m/s 762 mmHg 82%
    06:00 +2°C° 0 mm 7 m/s 763 mmHg 82%
    07:00 0°C° 0 mm 7 m/s 764 mmHg 80%
    08:00 +1°C° 0 mm 6 m/s 765 mmHg 79%
    09:00 +1°C° 0 mm 6 m/s 766 mmHg 77%
    10:00 +2°C° 0 mm 6 m/s 766 mmHg 74%
    11:00 +2°C° 0 mm 5 m/s 767 mmHg 70%
    12:00 +3°C° 0 mm 5 m/s 768 mmHg 67%
    13:00 +4°C° 0 mm 4 m/s 768 mmHg 67%
    14:00 +4°C° 0 mm 3 m/s 768 mmHg 67%
    15:00 +4°C° 0 mm 3 m/s 768 mmHg 68%
    16:00 +4°C° 0 mm 2 m/s 769 mmHg 70%
    17:00 +3°C° 0 mm 2 m/s 769 mmHg 73%
    18:00 +2°C° 0 mm 2 m/s 770 mmHg 76%
    19:00 +2°C° 0 mm 2 m/s 770 mmHg 78%
    20:00 +1°C° 0 mm 3 m/s 770 mmHg 79%
    21:00 +1°C° 0 mm 3 m/s 771 mmHg 81%
    22:00 0°C° 0 mm 4 m/s 771 mmHg 81%
    23:00 0°C° 0 mm 5 m/s 771 mmHg 81%
    Voir plus